Location: Newark
(13.9550°N, 109.0422°E)
Time: 07:15:29
(UTC+00:00)

OTV 5 (USA 277) - Visible Passes

Search period start: 18 October 2019 00:00
Search period end: 28 October 2019 00:00
Orbit: 310 x 324 km, 54.5° (Epoch: 08 October)

Date Brightness Start Highest point End Pass type
(mag) Time Alt. Az. Time Alt. Az. Time Alt. Az.
21 Oct ? 22:04:08 10° NNE 22:05:30 13° NE 22:06:51 10° E visible
23 Oct ? 11:17:52 10° SSW 11:20:26 39° ESE 11:20:28 39° ESE visible
24 Oct ? 11:32:26 10° WSW 11:34:55 32° NW 11:35:38 27° NNW visible
24 Oct ? 21:14:26 24° NE 21:14:54 25° NE 21:17:13 10° ESE visible
25 Oct ? 21:29:38 50° SSW 21:29:38 50° SSW 21:32:03 10° SSE visible
27 Oct ? 10:42:31 10° W 10:44:19 16° NW 10:46:06 10° NNW visible
